Regional Weather Roundup
Issued by NWS

Home | Current Version | Previous Version | Text Only | Print | Product List | Glossary Off
Versions: 1 2 3 4 5 6 7 8 9 10 11 12 13 14 15 16 17 18 19 20 21 22 23 24 25 26 27 28 29 30 31 32 33 34 35 36 37 38 39 40 41 42 43 44 45 46 47 48 49 50

000
ASUS43 KLOT 132310
RWRIL

ILLINOIS REGIONAL WEATHER ROUNDUP
NATIONAL WEATHER SERVICE CHICAGO/ROMEOVILLE IL
600 PM CDT SUN JUL 13 2014

NOTE: "FAIR" INDICATES FEW OR NO CLOUDS BELOW 12,000 FEET WITH NO
SIGNIFICANT WEATHER AND/OR OBSTRUCTIONS TO VISIBILITY.

* THESE STATIONS ARE NOT UNDER NWS QUALITY CONTROL. THEY ALSO MAY NOT
  REPORT WEATHER SUCH AS PRECIPITATION OR FOG.

ILZ001-002-007-009-015-016-024-140000-
NORTHWEST ILLINOIS

CITY           SKY/WX    TMP DP  RH WIND       PRES   REMARKS
MOLINE         CLOUDY    78  62  57 N12       29.92R HX  80
STERLING*      PTSUNNY   72  66  83 SW8       29.92R
SAVANNA*       CLOUDY    81  60  48 W7        29.90S HX  81
$$

ILZ003-004-008-010-011-017-018-140000-
NORTH CENTRAL ILLINOIS

CITY           SKY/WX    TMP DP  RH WIND       PRES   REMARKS
ROCKFORD       PTSUNNY   82  67  60 W9        29.89F HX  84
FREEPORT*      MOSUNNY   76  59  54 W13       29.92R
ROCHELLE*      DRIZZLE   78  68  71 W9        29.91R HX  80
DE KALB*       MOSUNNY   79  65  62 W10G17    29.91R HX  81
PERU*          MOSUNNY   83  66  56 W8        29.91S HX  85
$$

ILZ005-006-012>014-019>023-140000-
NORTHEAST ILLINOIS

CITY           SKY/WX    TMP DP  RH WIND       PRES   REMARKS
CHICAGO-OHARE  MOSUNNY   83  61  47 W10       29.87F HX  83
CHICAGO-MIDWAY MOSUNNY   85  63  47 W10       29.88F HX  86
AURORA         MOSUNNY   82  66  58 W10       29.90S HX  84
LANSING*       SUNNY     82  59  45 W7        29.89F HX  82
JOLIET*        SUNNY     82  60  47 SW6       29.91S HX  82
WAUKEGAN       PTSUNNY   80  62  54 VRB5      29.86S HX  81
DUPAGE AIRPORT MOSUNNY   81  65  58 W10       29.88F HX  83
KANKAKEE*      MOSUNNY   82  68  63 SW8       29.92F HX  84
WHEELING       MOSUNNY   84  62  47 W10       29.88F HX  85
MORRIS*        SUNNY     83  67  58 W6        29.90F HX  85
ROMEOVILLE*    MOSUNNY   82  64  54 W8        29.90S HX  83
NORTHERLY ISL    N/A     83  58  42 W6          N/A  HX  83
$$

LMZ740>746-140000-
SOUTHERN LAKE MICHIGAN

STATION/POSITION SKY/WX   TEMP    WIND        PRES    VSBY  WAVE
                          AIR SEA DIR/SP/G                  HT/PER
                          (F)     (DEG/KT/KT) (MB)    (MI)  (FT/S)
SOUTHERN BUOY              65 63  190/  8/ 10 1011.1F         1
WAUKEGAN HARBOR            82     260/ 12/ 15 1011.9F
HARRISON CRIB              77     160/  4/  8   N/A
BURNHAM HARBOR             83     300/  9/ 14   N/A
CALUMET HARBOR             84     240/  2/  9 1012.7F
MICHIGAN CITY              79     200/  5/  6   N/A
$$

ILZ025>027-034>036-040-047-049-050-058-095>099-140000-
WEST-CENTRAL ILLINOIS

CITY           SKY/WX    TMP DP  RH WIND       PRES   REMARKS
QUINCY         SUNNY     83  69  62 NW7       29.95F HX  86
GALESBURG*     SUNNY     87  70  56 SW6       29.93F HX  91
MACOMB*        MOSUNNY   82  68  62 CALM      29.96F HX  84
JACKSONVILLE*  SUNNY     84  72  66 NW3       29.95F HX  90
PITTSFIELD*    SUNNY     83  71  66 CALM      29.95F HX  87
$$

ILZ028>032-037-038-041>044-048-051>054-059>061-140000-
CENTRAL ILLINOIS

CITY           SKY/WX    TMP DP  RH WIND       PRES   REMARKS
PONTIAC        SUNNY     82  66  57 SW3       29.92F HX  85
BLOOMINGTON    SUNNY     81  65  58 VRB6      29.95F HX  83
DECATUR        MOSUNNY   84  69  60 VRB6      29.94F HX  88
PEORIA         MOSUNNY   83  69  62 SW8       29.93F HX  86
LACON*         SUNNY     83  66  56 SW8       29.91F HX  85
LINCOLN*       MOSUNNY   85  68  56 NW5       29.90F HX  88
SPRINGFIELD    MOSUNNY   85  69  58 W5        29.94F HX  89
TAYLORVILLE    MOSUNNY   81  72  74 NW6       29.94F HX  84
$$

ILZ033-039-045-046-055>057-062-063-140000-
EAST-CENTRAL ILLINOIS

CITY           SKY/WX    TMP DP  RH WIND       PRES   REMARKS
CHAMPAIGN      MOSUNNY   82  70  66 NW8       29.94F HX  86
RANTOUL*       SUNNY     83  65  55 W7        29.94F HX  85
MATTOON        MOSUNNY   83  71  67 NW10      29.93F HX  87
PARIS*         PTSUNNY   83  73  70 W3        29.93F HX  89
$$

ILZ079-100>102-140000-
SOUTHWEST ILLINOIS

CITY           SKY/WX    TMP DP  RH WIND       PRES   REMARKS
ALTON          PTSUNNY   84  75  74 NW7       29.93F HX  92
BELLEVILLE     PTSUNNY   86  74  67 SW3       29.92F HX  94
CAHOKIA*       LGT RAIN  85  73  67 CALM      29.93S HX  91
SPARTA*        PTSUNNY   84  72  65 CALM      29.94F HX  89
$$

ILZ064>066-069>071-074>076-080>082-084>086-088>090-092>094-140000-
SOUTH-CENTRAL ILLINOIS

CITY           SKY/WX    TMP DP  RH WIND       PRES   REMARKS
CARBONDALE     MOSUNNY   87  76  69 SE3       29.92F HX  97
CAIRO*         MOSUNNY   93  73  52 SW3       29.93F HX 101
MARION         PTSUNNY   84  79  84 NE7       29.94F HX  96
MT. VERNON     PTSUNNY   88  72  58 SW10      29.93F HX  94
CENTRALIA*     MOSUNNY   89  71  55 W5        29.93F HX  95
SALEM*         PTSUNNY   89  74  62 W7        29.93F HX  98
METROPOLIS*    PTSUNNY   92  68  46 SW7       29.93F HX  96
$$

ILZ067-068-072-073-078-083-087-091-140000-
SOUTHEAST ILLINOIS

CITY           SKY/WX    TMP DP  RH WIND       PRES   REMARKS
FLORA*         SUNNY     88  70  55 W9        29.92F HX  93
HARRISBURG*    MOSUNNY   85  75  71 W6        29.94F HX  94
ROBINSON*      PTSUNNY   85  77  77 NW6       29.92S HX  95
CARMI*         MOSUNNY   90  75  61 SW6       29.91F HX 100
$$

ABBREVIATIONS USED IN REMARKS
   TC - TEMPERATURE IN CELSIUS
  WCI - WIND CHILL INDEX
   HX - HEAT INDEX
  VSB - VISIBILITY
$$



USA.gov is the U.S. government's official web portal to all federal, state and local government web resources and services.